period_start,C,m1,H,J0,J1,J2,J3,J4,J5,JA,JB,JC,JD,JJ,JK,JN,#
2017-09-23 00:03:08,0.01,0.34,0.00,16.64,20.44,23.04,14.31,45.45,1024.02,2059.99,3411.00,3049.50,3472.09,599.83,613.32,55.27,0000 0000 0000 0000 000000
2017-09-23 00:08:10,0.01,0.35,0.00,16.64,20.44,23.01,14.43,45.52,1024.06,2059.99,3410.99,3049.16,3472.02,600.04,613.73,55.32,0000 0000 0000 0000 000000
2017-09-23 00:13:11,0.00,0.35,0.00,16.66,20.44,23.06,14.29,45.47,1023.99,2059.99,3410.95,3049.06,3472.00,599.98,613.45,55.38,0000 0000 0000 0000 000000
2017-09-23 00:18:13,0.00,0.35,0.00,16.66,20.44,23.10,14.39,45.46,1024.00,2059.99,3410.72,3049.03,3472.00,599.94,613.49,55.43,0000 0000 0000 0000 000000
2017-09-23 00:23:14,0.00,0.35,0.00,16.67,20.44,23.04,14.25,45.47,1024.03,2059.99,3410.19,3049.01,3471.99,600.10,613.70,55.48,0000 0000 0000 0000 000000
2017-09-23 00:28:15,0.00,0.35,0.00,16.65,20.43,23.02,14.28,45.51,1024.02,2059.99,3410.03,3049.00,3471.97,599.90,613.47,55.53,0000 0000 0000 0000 000000
2017-09-23 00:33:17,0.00,0.35,0.00,16.67,20.43,23.04,14.37,45.63,1023.97,2059.99,3410.01,3049.00,3471.96,599.97,613.42,55.58,0000 0000 0000 0000 000000
2017-09-23 00:38:18,0.00,0.35,0.00,16.68,20.42,23.08,14.26,45.60,1023.99,2059.99,3410.00,3049.00,3471.85,599.83,613.30,55.63,0000 0000 0000 0000 000000
2017-09-23 00:43:19,0.00,0.35,0.00,16.69,20.42,23.08,14.30,45.67,1023.96,2059.99,3410.00,3049.00,3471.79,600.30,613.55,55.68,0000 0000 0000 0000 000000
2017-09-23 00:48:20,0.00,0.35,0.00,16.69,20.42,23.09,14.30,45.73,1023.97,2059.99,3409.99,3048.99,3471.21,599.97,613.56,55.73,0000 0000 0000 0000 000000
2017-09-23 00:53:21,0.00,0.35,0.00,16.69,20.42,23.06,14.35,45.67,1023.95,2059.99,3409.94,3048.98,3471.06,600.20,613.54,55.78,0000 0000 0000 0000 000000
2017-09-23 00:58:23,0.01,0.35,0.00,16.69,20.42,23.08,14.45,45.71,1023.94,2059.99,3409.60,3048.98,3471.01,600.34,613.66,55.83,0000 0000 0000 0000 000000
2017-09-23 01:03:24,0.00,0.35,0.00,16.71,20.42,23.10,14.25,45.67,1023.94,2059.99,3409.29,3048.95,3471.00,599.90,613.24,55.88,0000 0000 0000 0000 000000
2017-09-23 01:08:26,0.00,0.35,0.00,16.72,20.42,23.12,14.35,45.69,1023.94,2059.99,3409.15,3048.94,3470.99,599.88,613.27,55.93,0000 0000 0000 0000 000000
2017-09-23 01:13:27,0.00,0.35,0.00,16.72,20.42,23.12,14.40,45.79,1023.94,2059.99,3409.08,3048.96,3470.99,600.33,613.57,55.98,0000 0000 0000 0000 000000
2017-09-23 01:18:28,0.00,0.35,0.00,16.72,20.42,23.12,14.37,45.77,1023.94,2059.99,3409.02,3048.88,3470.99,600.27,613.54,56.03,0000 0000 0000 0000 000000
2017-09-23 01:23:29,0.00,0.35,0.00,16.74,20.42,23.14,14.29,45.68,1023.94,2059.99,3409.00,3048.90,3470.97,599.78,613.10,56.08,0000 0000 0000 0000 000000
2017-09-23 01:28:30,0.01,0.35,0.00,16.76,20.42,23.18,14.37,45.66,1023.94,2059.99,3409.02,3048.75,3470.96,600.02,613.34,56.13,0000 0000 0000 0000 000000
2017-09-23 01:33:32,0.01,0.35,0.00,16.78,20.42,23.19,14.33,45.72,1023.94,2059.99,3409.00,3048.48,3470.70,600.09,613.31,56.18,0000 0000 0000 0000 000000
2017-09-23 01:38:33,0.01,0.35,0.00,16.77,20.43,23.19,14.34,45.67,1023.94,2059.99,3408.97,3048.19,3470.29,599.91,613.16,56.24,0000 0000 0000 0000 000000
2017-09-23 01:43:34,0.00,0.35,0.00,16.78,20.44,23.18,14.28,45.62,1023.94,2059.99,3408.94,3048.17,3470.19,600.16,613.48,56.29,0000 0000 0000 0000 000000
2017-09-23 01:48:35,0.01,0.35,0.00,16.78,20.44,23.18,14.30,45.65,1023.92,2059.98,3408.52,3048.05,3470.04,599.96,613.13,56.34,0000 0000 0000 0000 000000
2017-09-23 01:53:36,0.01,0.35,0.00,16.81,20.44,23.18,14.35,45.70,1023.91,2059.99,3408.12,3048.03,3470.01,600.23,613.41,56.39,0000 0000 0000 0000 000000
2017-09-23 01:58:37,0.00,0.35,0.00,16.82,20.44,23.24,14.42,45.65,1023.85,2059.99,3408.05,3048.01,3470.00,600.36,613.56,56.44,0000 0000 0000 0000 000000
2017-09-23 02:03:38,0.00,0.35,0.00,16.83,20.44,23.19,14.34,45.68,1023.89,2059.98,3408.00,3048.00,3469.99,600.15,613.25,56.49,0000 0000 0000 0000 000000
2017-09-23 02:08:40,0.00,0.35,0.00,16.84,20.46,23.27,14.28,45.61,1023.89,2059.98,3408.00,3048.00,3469.98,600.02,613.16,56.54,0000 0000 0000 0000 000000
2017-09-23 02:13:41,0.00,0.35,0.00,16.85,20.47,23.28,14.28,45.58,1023.86,2059.98,3408.00,3048.00,3469.83,600.04,613.04,56.59,0000 0000 0000 0000 000000
2017-09-23 02:18:42,0.01,0.35,0.00,16.87,20.47,23.25,14.32,45.72,1023.72,2059.96,3407.95,3048.00,3469.52,600.11,613.14,56.64,0000 0000 0000 0000 000000
2017-09-23 02:23:44,0.00,0.35,0.00,16.88,20.48,23.30,14.32,45.73,1023.75,2059.93,3407.86,3047.95,3469.09,600.18,613.02,56.69,0000 0000 0000 0000 000000
2017-09-23 02:28:45,-0.01,0.35,0.00,16.89,20.49,23.34,14.30,45.79,1023.76,2059.84,3407.72,3047.92,3469.02,599.86,612.82,56.74,0000 0000 0000 0000 000000
2017-09-23 02:33:47,0.00,0.35,0.00,16.92,20.49,23.37,14.33,45.85,1023.74,2059.78,3407.24,3047.88,3469.01,599.84,612.60,56.79,0000 0000 0000 0000 000000
2017-09-23 02:38:48,0.01,0.35,0.00,16.95,20.52,23.40,14.35,45.77,1023.78,2059.74,3407.06,3047.67,3469.00,599.97,612.61,56.84,0000 0000 0000 0000 000000
2017-09-23 02:43:50,0.00,0.35,0.00,16.97,20.52,23.43,14.32,45.77,1023.80,2059.60,3407.00,3047.16,3468.97,600.15,613.01,56.89,0000 0000 0000 0000 000000
2017-09-23 02:48:51,-0.01,0.35,0.00,16.98,20.54,23.44,14.30,45.77,1023.80,2059.50,3406.99,3047.05,3468.90,599.95,612.63,56.94,0000 0000 0000 0000 000000
2017-09-23 02:53:52,-0.02,0.35,0.00,17.00,20.56,23.45,14.35,45.83,1023.85,2059.12,3406.94,3047.00,3468.27,600.11,612.87,56.99,0000 0000 0000 0000 000000
2017-09-23 02:58:53,0.01,0.35,0.00,17.03,20.57,23.46,14.26,45.67,1023.88,2059.04,3406.54,3047.00,3468.04,599.77,612.47,57.04,0000 0000 0000 0000 000000
2017-09-23 03:03:54,0.00,0.35,0.00,17.04,20.59,23.48,14.28,45.69,1023.87,2059.03,3406.11,3046.98,3468.00,599.71,612.24,57.09,0000 0000 0000 0000 000000
2017-09-23 03:08:55,0.00,0.35,0.00,17.07,20.60,23.48,14.34,45.80,1023.84,2059.01,3406.03,3046.90,3467.97,600.11,612.68,57.14,0000 0000 0000 0000 000000
2017-09-23 03:13:57,0.02,0.35,0.00,17.08,20.62,23.52,14.33,45.82,1023.75,2059.01,3405.98,3046.24,3467.61,599.82,612.36,57.20,0000 0000 0000 0000 000000
2017-09-23 03:18:58,0.01,0.35,0.00,17.10,20.64,23.50,14.26,45.78,1023.55,2059.00,3405.81,3046.03,3467.14,600.09,612.37,57.25,0000 0000 0000 0000 000000
2017-09-23 03:23:59,0.01,0.35,0.00,17.12,20.65,23.55,14.33,45.81,1023.53,2059.00,3405.36,3046.01,3467.00,599.96,612.32,57.30,0000 0000 0000 0000 000000
2017-09-23 03:29:00,0.00,0.35,0.00,17.14,20.67,23.55,14.24,45.62,1023.54,2058.99,3405.02,3046.00,3467.00,599.79,612.11,57.35,0000 0000 0000 0000 000000
2017-09-23 03:34:02,0.00,0.35,0.00,17.16,20.69,23.57,14.40,45.77,1023.50,2058.99,3405.00,3045.98,3466.95,600.20,612.25,57.40,0000 0000 0000 0000 000000
2017-09-23 03:39:03,0.00,0.35,0.00,17.19,20.70,23.60,14.28,45.76,1023.46,2058.97,3404.97,3045.95,3466.58,599.96,612.12,57.45,0000 0000 0000 0000 000000
2017-09-23 03:44:04,0.03,0.35,0.00,17.20,20.72,23.62,14.27,45.67,1023.49,2058.96,3404.46,3045.62,3466.11,599.91,611.96,57.50,0000 0000 0000 0000 000000
2017-09-23 03:49:06,0.01,0.36,0.00,17.22,20.74,23.65,14.35,45.69,1023.49,2058.96,3404.08,3045.09,3466.01,600.05,612.20,57.55,0000 0000 0000 0000 000000
2017-09-23 03:54:07,0.00,0.36,0.00,17.24,20.75,23.70,14.39,45.82,1023.48,2058.91,3404.00,3045.01,3465.99,600.46,612.28,57.60,0000 0000 0000 0000 000000
2017-09-23 03:59:08,-0.01,0.36,0.00,17.26,20.77,23.71,14.36,45.74,1023.49,2058.78,3403.91,3045.00,3465.89,600.14,612.12,57.65,0000 0000 0000 0000 000000
2017-09-23 04:04:09,-0.01,0.35,0.00,17.28,20.78,23.71,14.19,45.68,1023.60,2058.33,3403.28,3044.99,3465.15,599.76,611.77,57.70,0000 0000 0000 0000 000000
2017-09-23 04:09:11,0.00,0.35,0.00,17.29,20.80,23.70,14.29,45.76,1023.61,2058.30,3403.05,3044.97,3465.04,599.98,611.84,57.75,0000 0000 0000 0000 000000
2017-09-23 04:14:12,-0.01,0.35,0.00,17.32,20.82,23.73,14.23,45.58,1023.64,2058.11,3403.00,3044.74,3465.00,599.88,611.85,57.80,0000 0000 0000 0000 000000
2017-09-23 04:19:13,0.01,0.35,0.00,17.33,20.83,23.76,14.26,45.65,1023.67,2058.02,3402.96,3044.14,3464.98,600.07,611.94,57.85,0000 0000 0000 0000 000000
2017-09-23 04:24:15,0.02,0.36,0.00,17.36,20.85,23.77,14.31,45.78,1023.68,2058.03,3402.30,3044.02,3464.47,599.98,611.87,57.90,0000 0000 0000 0000 000000
2017-09-23 04:29:16,0.01,0.36,0.00,17.38,20.87,23.80,14.25,45.67,1023.60,2058.01,3402.03,3043.99,3464.04,600.25,612.00,57.95,0000 0000 0000 0000 000000
2017-09-23 04:34:17,0.00,0.36,0.00,17.39,20.88,23.82,14.30,45.72,1023.68,2058.00,3402.00,3043.98,3464.00,600.01,611.87,58.00,0000 0000 0000 0000 000000
2017-09-23 04:39:19,0.00,0.36,0.00,17.42,20.90,23.83,14.28,45.65,1023.75,2058.00,3401.93,3043.87,3463.99,600.10,611.77,58.06,0000 0000 0000 0000 000000
2017-09-23 04:44:20,0.02,0.36,0.00,17.43,20.92,23.83,14.33,45.67,1023.81,2057.99,3401.40,3043.36,3463.86,600.12,611.87,58.11,0000 0000 0000 0000 000000
2017-09-23 04:49:21,0.02,0.36,0.00,17.45,20.94,23.89,14.36,45.69,1023.82,2057.99,3401.02,3043.07,3463.24,600.18,611.97,58.16,0000 0000 0000 0000 000000
2017-09-23 04:54:22,0.00,0.36,0.00,17.47,20.95,23.90,14.21,45.70,1023.81,2057.98,3401.00,3043.01,3463.01,599.81,611.46,58.21,0000 0000 0000 0000 000000
2017-09-23 04:59:24,0.00,0.36,0.00,17.49,20.97,23.90,14.37,45.73,1023.82,2057.97,3400.71,3042.99,3462.98,600.37,612.09,58.26,0000 0000 0000 0000 000000
2017-09-23 05:04:25,0.01,0.36,0.00,17.50,20.99,23.93,14.28,45.67,1023.79,2057.94,3400.08,3042.97,3462.89,600.28,611.89,58.31,0000 0000 0000 0000 000000
2017-09-23 05:09:26,0.00,0.36,0.00,17.52,21.01,23.98,14.29,45.73,1023.74,2057.79,3400.01,3042.77,3462.28,599.97,611.50,58.36,0000 0000 0000 0000 000000
2017-09-23 05:14:27,-0.01,0.36,0.00,17.54,21.02,23.95,14.23,45.68,1023.70,2057.61,3399.99,3042.36,3462.05,599.97,611.45,58.41,0000 0000 0000 0000 000000
2017-09-23 05:19:28,-0.01,0.36,0.00,17.56,21.04,23.99,14.25,45.76,1023.72,2057.21,3399.79,3042.04,3461.99,600.01,611.55,58.46,0000 0000 0000 0000 000000
2017-09-23 05:24:30,-0.01,0.36,0.00,17.58,21.06,24.01,14.24,45.73,1023.69,2057.08,3399.11,3042.00,3461.85,600.12,611.42,58.51,0000 0000 0000 0000 000000
2017-09-23 05:29:31,0.00,0.36,0.00,17.59,21.08,24.05,14.25,45.73,1023.56,2057.01,3399.00,3041.98,3461.29,599.87,611.25,58.56,0000 0000 0000 0000 000000
2017-09-23 05:34:31,0.00,0.36,0.00,17.62,21.09,24.06,14.23,45.63,1023.56,2057.00,3398.95,3041.82,3461.02,599.58,610.77,58.61,0000 0000 0000 0000 000000
2017-09-23 05:39:33,0.02,0.36,0.00,17.63,21.12,24.09,14.32,45.76,1023.60,2057.00,3398.55,3041.43,3461.00,600.02,611.18,58.66,0000 0000 0000 0000 000000
2017-09-23 05:44:34,0.01,0.36,0.00,17.65,21.13,24.09,14.25,45.56,1023.56,2057.00,3398.03,3041.05,3460.88,600.16,611.32,58.71,0000 0000 0000 0000 000000
2017-09-23 05:49:36,0.01,0.36,0.00,17.67,21.15,24.12,14.27,45.62,1023.58,2056.99,3398.00,3041.00,3460.40,599.88,610.97,58.76,0000 0000 0000 0000 000000
2017-09-23 05:54:37,0.00,0.36,0.00,17.69,21.17,24.13,14.34,45.61,1023.53,2056.99,3397.92,3041.00,3460.06,600.36,611.34,58.81,0000 0000 0000 0000 000000
2017-09-23 05:59:39,0.01,0.36,0.00,17.71,21.19,24.12,14.27,45.67,1023.47,2056.98,3397.18,3040.94,3460.00,599.87,610.81,58.86,0000 0000 0000 0000 000000
2017-09-23 06:04:40,0.01,0.36,0.00,17.72,21.21,24.16,14.28,45.64,1023.49,2056.96,3397.00,3040.46,3459.94,600.12,610.95,58.91,0000 0000 0000 0000 000000
2017-09-23 06:09:41,0.02,0.36,0.00,17.73,21.23,24.17,14.26,45.57,1023.49,2056.91,3396.90,3040.07,3459.42,600.12,611.10,58.97,0000 0000 0000 0000 000000
2017-09-23 06:14:43,-0.01,0.36,0.00,17.75,21.24,24.18,14.33,45.62,1023.48,2056.60,3396.26,3040.00,3459.01,600.04,610.98,59.02,0000 0000 0000 0000 000000
2017-09-23 06:19:44,-0.04,0.36,0.00,17.78,21.27,24.23,14.26,45.51,1023.51,2056.21,3396.00,3039.98,3458.97,600.04,610.90,59.07,0000 0000 0000 0000 000000
2017-09-23 06:24:46,0.01,0.36,0.00,17.79,21.28,24.24,14.24,45.61,1023.54,2056.10,3395.94,3039.89,3458.60,600.10,610.79,59.12,0000 0000 0000 0000 000000
2017-09-23 06:29:47,0.04,0.36,0.00,17.79,21.30,24.27,14.26,45.58,1023.69,2056.02,3395.14,3039.15,3457.95,600.15,611.10,59.17,0000 0000 0000 0000 000000
2017-09-23 06:34:48,0.06,0.37,0.00,17.82,21.32,24.27,14.18,45.59,1023.79,2056.01,3393.84,3038.08,3456.84,599.97,610.99,59.22,0000 0000 0000 0000 000000
2017-09-23 06:39:49,0.04,0.37,0.00,17.82,21.34,24.29,14.25,45.63,1023.92,2056.00,3392.86,3037.13,3456.01,600.05,611.13,59.27,0000 0000 0000 0000 000000
2017-09-23 06:44:51,0.03,0.37,0.00,17.83,21.36,24.33,14.30,45.63,1023.93,2056.00,3392.02,3036.73,3455.27,599.81,610.71,59.32,0000 0000 0000 0000 000000
2017-09-23 06:49:52,0.04,0.37,0.00,17.86,21.38,24.34,14.30,45.60,1023.94,2056.00,3391.11,3036.01,3454.54,600.05,610.99,59.37,0000 0000 0000 0000 000000
2017-09-23 06:54:53,0.05,0.38,0.00,17.88,21.39,24.32,14.29,45.67,1023.94,2056.00,3390.21,3035.19,3453.60,600.35,611.28,59.42,0000 0000 0000 0000 000000
2017-09-23 06:59:54,0.04,0.38,0.00,17.89,21.42,24.38,14.24,45.63,1023.94,2055.99,3389.14,3034.48,3452.91,599.86,610.80,59.47,0000 0000 0000 0000 000000
2017-09-23 07:04:56,0.02,0.38,0.00,17.92,21.44,24.39,14.33,45.73,1023.94,2055.97,3388.77,3034.01,3452.16,600.28,611.08,59.52,0000 0000 0000 0000 000000
2017-09-23 07:09:57,0.01,0.38,0.00,17.94,21.45,24.40,14.29,45.74,1023.94,2055.98,3388.20,3034.00,3452.00,599.89,610.86,59.57,0000 0000 0000 0000 000000
2017-09-23 07:14:58,0.00,0.38,0.00,17.95,21.47,24.44,14.26,45.73,1023.94,2055.97,3388.00,3033.98,3452.00,600.23,611.01,59.62,0000 0000 0000 0000 000000
2017-09-23 07:19:59,0.01,0.38,0.00,17.98,21.49,24.44,14.33,45.60,1023.94,2055.90,3387.96,3033.67,3451.76,600.24,610.91,59.67,0000 0000 0000 0000 000000
2017-09-23 07:25:01,0.00,0.38,0.00,17.99,21.51,24.42,14.23,45.69,1023.94,2055.67,3387.31,3033.10,3451.10,599.97,610.70,59.72,0000 0000 0000 0000 000000
2017-09-23 07:30:02,-0.03,0.38,0.00,18.02,21.52,24.44,14.32,45.71,1023.94,2055.35,3386.99,3033.00,3450.98,600.03,610.73,59.77,0000 0000 0000 0000 000000
2017-09-23 07:35:03,0.02,0.38,0.00,18.02,21.54,24.49,14.29,45.71,1023.94,2055.07,3386.41,3032.83,3450.39,600.39,610.94,59.82,0000 0000 0000 0000 000000
2017-09-23 07:40:04,0.02,0.38,0.00,18.03,21.55,24.52,14.35,45.74,1023.94,2055.04,3386.00,3032.10,3450.01,600.15,610.74,59.88,0000 0000 0000 0000 000000
2017-09-23 07:45:05,0.00,0.38,0.00,18.05,21.57,24.55,14.24,45.71,1023.94,2055.03,3385.83,3032.01,3449.99,599.86,610.38,59.93,0000 0000 0000 0000 000000
2017-09-23 07:50:07,0.01,0.38,0.00,18.08,21.59,24.58,14.23,45.72,1023.94,2055.00,3385.12,3032.00,3449.89,599.93,610.41,59.98,0000 0000 0000 0000 000000
2017-09-23 07:55:08,0.01,0.38,0.00,18.08,21.60,24.59,14.31,45.64,1023.94,2055.00,3384.96,3031.97,3449.18,599.86,610.27,60.03,0000 0000 0000 0000 000000
2017-09-23 08:00:09,0.04,0.27,0.00,18.10,21.63,24.61,12.58,40.28,1023.95,2055.29,3446.75,3062.36,3494.78,534.25,543.83,0.01,0000 0000 0000 0000 000002
2017-09-23 08:05:10,0.07,0.00,0.00,18.12,21.64,24.62,14.15,44.72,1023.96,2055.89,3588.56,3132.89,3601.81,599.75,610.20,0.02,0000 0000 0000 0000 000000
2017-09-23 08:10:11,0.06,0.00,0.00,18.14,21.65,24.61,14.22,44.80,1024.01,2055.57,3586.72,3132.06,3601.02,600.17,610.55,0.08,0000 0000 0000 0000 000000
2017-09-23 08:15:12,0.05,0.00,0.00,18.18,21.67,24.66,14.27,44.78,1024.11,2055.16,3585.93,3131.98,3600.15,600.00,610.40,0.13,0000 0000 0000 0000 000000
2017-09-23 08:20:14,0.03,0.00,0.00,18.24,21.68,24.64,14.28,44.74,1024.07,2055.11,3585.11,3131.68,3599.88,600.16,610.40,0.18,0000 0000 0000 0000 000000
2017-09-23 08:25:15,0.01,0.00,0.00,18.34,21.69,24.68,14.25,44.76,1024.12,2055.03,3584.61,3131.07,3599.12,600.26,610.35,0.23,0000 0000 0000 0000 000000
2017-09-23 08:30:16,0.01,0.00,0.00,18.41,21.71,24.71,14.24,44.77,1024.29,2055.02,3584.02,3131.00,3598.99,600.03,610.04,0.28,0000 0000 0000 0000 000000
2017-09-23 08:35:17,0.00,0.00,0.00,18.50,21.72,24.69,14.13,44.70,1024.17,2055.02,3583.85,3131.00,3598.79,599.90,609.65,0.33,0000 0000 0000 0000 000000
2017-09-23 08:40:19,0.02,0.00,0.00,18.56,21.74,24.70,14.24,44.77,1024.12,2055.00,3583.07,3130.85,3598.06,600.14,609.72,0.38,0000 0000 0000 0000 000000
2017-09-23 08:45:20,0.01,0.00,0.00,18.50,21.75,24.73,14.21,44.80,1024.18,2055.00,3582.99,3130.20,3597.98,599.96,609.80,0.43,0000 0000 0000 0000 000000
2017-09-23 08:50:22,0.02,0.00,0.00,18.42,21.77,24.73,14.36,44.76,1024.34,2055.00,3582.66,3130.05,3597.60,600.31,610.29,0.48,0000 0000 0000 0000 000000
2017-09-23 08:55:23,0.01,0.00,0.00,18.37,21.77,24.74,14.31,44.85,1024.39,2055.00,3582.03,3130.00,3597.02,600.11,610.19,0.53,0000 0000 0000 0000 000000
2017-09-23 09:00:24,0.00,0.00,0.00,18.33,21.79,24.75,14.31,44.80,1024.42,2054.99,3581.99,3129.99,3596.99,600.37,610.64,0.58,0000 0000 0000 0000 000000
2017-09-23 09:05:25,0.00,0.00,0.00,18.29,21.79,24.75,14.18,44.77,1024.42,2054.98,3581.79,3129.97,3596.92,599.67,609.97,0.63,0000 0000 0000 0000 000000
2017-09-23 09:10:26,0.02,0.00,0.00,18.26,21.80,24.71,14.17,44.94,1024.40,2054.99,3581.10,3129.90,3596.45,599.60,609.98,0.68,0000 0000 0000 0000 000000
2017-09-23 09:15:28,0.01,0.00,0.00,18.24,21.82,24.67,14.24,44.83,1024.39,2054.98,3581.00,3129.41,3596.07,600.25,610.70,0.73,0000 0000 0000 0000 000000
2017-09-23 09:20:29,0.00,0.01,0.00,18.22,21.82,24.71,14.26,44.85,1024.40,2054.99,3580.93,3129.05,3596.00,600.10,610.62,0.78,0000 0000 0000 0000 000000
2017-09-23 09:25:31,0.01,0.01,0.00,18.22,21.82,24.73,14.29,44.82,1024.41,2054.95,3580.22,3129.00,3595.91,600.11,610.57,0.83,0000 0000 0000 0000 000000
2017-09-23 09:30:32,0.01,0.01,0.00,18.21,21.82,24.72,14.14,44.75,1024.41,2054.91,3580.00,3129.00,3595.23,600.07,610.49,0.88,0000 0000 0000 0000 000000
2017-09-23 09:35:33,-0.02,0.01,0.00,18.19,21.84,24.70,14.28,44.85,1024.43,2054.72,3579.96,3128.99,3595.01,600.21,610.71,0.93,0000 0000 0000 0000 000000
2017-09-23 09:40:34,-0.01,0.01,0.00,18.19,21.84,24.66,14.24,44.76,1024.43,2054.47,3579.54,3128.96,3595.00,599.84,610.44,0.98,0000 0000 0000 0000 000000
2017-09-23 09:45:36,-0.01,0.00,0.00,18.19,21.84,24.69,14.27,44.87,1024.43,2054.22,3579.03,3128.62,3594.96,600.10,610.64,1.03,0000 0000 0000 0000 000000
2017-09-23 09:50:37,0.01,0.01,0.00,18.17,21.84,24.63,14.24,44.81,1024.43,2054.28,3579.00,3128.68,3594.84,600.17,610.70,1.08,0000 0000 0000 0000 000000
2017-09-23 09:55:38,0.01,0.01,0.00,18.16,21.84,24.64,14.28,44.86,1024.43,2054.24,3578.97,3128.28,3594.38,600.21,610.78,1.13,0000 0000 0000 0000 000000
2017-09-23 10:00:39,0.01,0.01,0.00,18.16,21.84,24.67,14.34,44.87,1024.43,2054.16,3578.86,3128.06,3594.03,600.35,611.01,1.18,0000 0000 0000 0000 000000
2017-09-23 10:05:40,0.01,0.01,0.00,18.17,21.84,24.63,14.27,44.86,1024.43,2054.16,3578.19,3128.03,3594.00,600.07,610.57,1.23,0000 0000 0000 0000 000000
2017-09-23 10:10:41,0.01,0.01,0.00,18.15,21.84,24.59,14.22,44.76,1024.43,2054.20,3578.00,3128.01,3594.00,599.54,610.16,1.28,0000 0000 0000 0000 000000
2017-09-23 10:15:42,-0.00,0.01,0.00,18.14,21.84,24.57,14.23,44.75,1024.43,2054.20,3578.00,3128.01,3593.99,599.63,610.30,1.33,0000 0000 0000 0000 000000
2017-09-23 10:20:43,-0.00,0.01,0.00,18.13,21.84,24.61,14.28,44.87,1024.43,2054.15,3577.99,3128.00,3593.97,599.97,610.65,1.38,0000 0000 0000 0000 000000
2017-09-23 10:25:45,-0.00,0.01,0.00,18.13,21.84,24.62,14.33,44.93,1024.43,2054.10,3577.97,3128.00,3593.85,600.19,610.78,1.43,0000 0000 0000 0000 000000
2017-09-23 10:30:46,0.01,0.01,0.00,18.11,21.84,24.64,14.24,44.68,1024.43,2054.21,3577.85,3128.00,3593.61,600.24,611.05,1.48,0000 0000 0000 0000 000000
2017-09-23 10:35:48,0.01,0.01,0.00,18.12,21.83,24.60,14.34,44.81,1024.43,2054.15,3577.20,3128.00,3593.12,600.27,611.02,1.53,0000 0000 0000 0000 000000
2017-09-23 10:40:49,0.00,0.01,0.00,18.10,21.82,24.56,14.31,44.77,1024.43,2054.12,3577.02,3127.99,3593.00,600.52,611.10,1.58,0000 0000 0000 0000 000000
2017-09-23 10:45:50,-0.00,0.01,0.00,18.09,21.82,24.54,14.29,44.78,1024.43,2054.05,3577.00,3127.98,3593.00,600.15,610.89,1.63,0000 0000 0000 0000 000000
2017-09-23 10:50:52,0.01,0.01,0.00,18.08,21.82,24.55,14.17,44.92,1024.43,2054.14,3576.98,3127.98,3592.99,599.69,610.52,1.68,0000 0000 0000 0000 000000
2017-09-23 10:55:53,0.00,0.01,0.00,18.07,21.82,24.57,14.29,44.92,1024.43,2054.21,3576.93,3127.97,3592.98,599.94,610.68,1.73,0000 0000 0000 0000 000000
2017-09-23 11:00:54,0.02,0.01,0.00,18.06,21.82,24.50,14.18,44.83,1024.44,2054.34,3576.65,3127.97,3592.98,599.88,610.65,1.78,0000 0000 0000 0000 000000
2017-09-23 11:05:55,0.00,0.01,0.00,18.05,21.81,24.50,14.24,44.70,1024.44,2054.36,3576.09,3127.84,3592.91,599.89,610.67,1.83,0000 0000 0000 0000 000000
2017-09-23 11:10:56,0.01,0.01,0.00,18.04,21.80,24.48,14.20,44.78,1024.43,2054.37,3576.01,3127.62,3592.61,599.63,610.66,1.88,0000 0000 0000 0000 000000
2017-09-23 11:15:58,0.00,0.01,0.00,18.03,21.79,24.48,14.28,44.84,1024.43,2054.19,3576.00,3127.23,3592.07,600.14,611.08,1.93,0000 0000 0000 0000 000000
2017-09-23 11:20:59,0.02,0.01,0.00,18.00,21.79,24.48,14.27,44.81,1024.43,2054.32,3575.98,3127.06,3592.00,600.03,610.86,1.98,0000 0000 0000 0000 000000
2017-09-23 11:26:00,0.04,0.01,0.00,18.00,21.79,24.48,14.22,44.87,1024.43,2054.71,3575.74,3127.01,3592.00,600.04,610.88,2.03,0000 0000 0000 0000 000000
2017-09-23 11:31:01,0.01,0.01,0.00,17.99,21.79,24.49,14.24,44.78,1024.43,2054.79,3575.10,3127.00,3591.96,599.77,610.64,2.08,0000 0000 0000 0000 000000
2017-09-23 11:36:02,0.01,0.02,0.00,17.99,21.78,24.43,14.22,44.73,1024.43,2054.64,3575.00,3126.98,3591.34,599.89,610.92,2.13,0000 0000 0000 0000 000000
2017-09-23 11:41:03,0.01,0.02,0.00,17.99,21.77,24.45,14.31,44.91,1024.43,2054.80,3574.95,3126.92,3591.02,599.91,610.97,2.18,0000 0000 0000 0000 000000
2017-09-23 11:46:04,0.02,0.02,0.00,17.97,21.77,24.44,14.27,44.92,1024.43,2054.91,3574.45,3126.66,3591.00,600.26,611.21,2.23,0000 0000 0000 0000 000000
2017-09-23 11:51:05,0.01,0.02,0.00,17.97,21.77,24.38,14.18,44.72,1024.43,2054.96,3574.03,3126.14,3590.99,599.61,610.62,2.28,0000 0000 0000 0000 000000
2017-09-23 11:56:06,0.00,0.02,0.00,17.96,21.77,24.38,14.27,44.78,1024.43,2054.97,3573.99,3126.02,3590.87,599.79,610.79,2.33,0000 0000 0000 0000 000000
2017-09-23 12:01:08,0.01,0.02,0.00,17.94,21.76,24.40,14.25,44.77,1024.43,2054.97,3573.91,3126.00,3590.20,600.10,611.12,2.38,0000 0000 0000 0000 000000
2017-09-23 12:06:09,0.01,0.02,0.00,17.93,21.75,24.40,14.27,44.92,1024.43,2054.98,3573.34,3126.00,3590.02,599.73,610.84,2.43,0000 0000 0000 0000 000000
2017-09-23 12:11:11,0.00,0.02,0.00,17.92,21.74,24.40,14.30,44.94,1024.43,2054.98,3573.10,3125.99,3590.01,599.99,611.09,2.49,0000 0000 0000 0000 000000
2017-09-23 12:16:12,-0.00,0.02,0.00,17.90,21.74,24.39,14.21,44.73,1024.43,2054.97,3573.01,3125.98,3590.00,599.95,611.08,2.54,0000 0000 0000 0000 000000
2017-09-23 12:21:13,0.00,0.02,0.00,17.89,21.73,24.38,14.24,44.88,1024.43,2054.98,3572.99,3125.96,3589.96,599.91,611.07,2.59,0000 0000 0000 0000 000000
2017-09-23 12:26:15,0.01,0.02,0.00,17.89,21.72,24.38,14.29,44.80,1024.43,2054.99,3572.88,3125.84,3589.79,600.38,611.53,2.64,0000 0000 0000 0000 000000
2017-09-23 12:31:16,0.02,0.02,0.00,17.88,21.72,24.36,14.27,44.81,1024.43,2054.99,3572.37,3125.53,3589.39,600.03,611.18,2.69,0000 0000 0000 0000 000000
2017-09-23 12:36:17,0.01,0.02,0.00,17.87,21.72,24.35,14.31,44.87,1024.41,2054.99,3572.18,3125.53,3589.12,600.28,611.39,2.74,0000 0000 0000 0000 000000
2017-09-23 12:41:19,-0.00,0.02,0.00,17.87,21.70,24.32,14.21,44.78,1024.43,2054.99,3572.06,3125.61,3589.06,599.90,611.14,2.79,0000 0000 0000 0000 000000
2017-09-23 12:46:21,0.00,0.02,0.00,17.86,21.69,24.32,14.28,44.79,1024.43,2054.99,3572.01,3125.47,3589.02,600.39,611.73,2.84,0000 0000 0000 0000 000000
2017-09-23 12:51:22,0.00,0.02,0.00,17.84,21.69,24.29,14.32,44.87,1024.43,2054.99,3572.00,3125.28,3589.00,600.34,611.50,2.89,0000 0000 0000 0000 000000
2017-09-23 12:56:23,0.01,0.02,0.00,17.84,21.67,24.29,14.34,44.88,1024.42,2054.99,3571.74,3125.05,3588.96,600.21,611.56,2.94,0000 0000 0000 0000 000000